Location: Klickitat County Star Party
(45.8642°N, 120.6771°W)
Time: 19:16:42
(UTC-07:00)

SO-50 - Pass Details

Date: 27 May 2019
Orbit: 586 x 700 km, 64.6° (Epoch: 24 June)

Event Time Altitude Azimuth Distance (km) Brightness Sun altitude
Rises 01:00:53 0° 328° (NNW) 3,091 ? -22.9°
Reaches altitude 10° 01:03:42 10° 343° (NNW) 2,165 ? -22.9°
Maximum altitude 01:07:37 23° 36° (NE) 1,458 ? -22.8°
Drops below altitude 10° 01:11:29 10° 88° (E) 2,124 ? -22.8°
Sets 01:14:13 0° 103° (ESE) 3,018 ? -22.8°
